Погода в Мариуполе

Погода в Мариуполе : погода сейчас, прогноз погоды и архив. Всё, что Вы хотите узнать о погоде в Мариуполе!

Поиск расширенной информации на нашем сайте:

Другие новости

Новости СМИ2

Главная страница сайта

Новости сайта

02.10.2013

Напоминаем, что на нашем новом сайте вы можете получить высокодетализированные прогнозы погоды по пунктам России, СНГ и мира (включающие важные для авиации метеовеличины, такие как направление и скорость ветра, видимость, явления погоды, количество и форма облачности, нижняя и верхняя граница облачности), а также ознакомиться с разнообразными материалами по авиационной метеорологии и подборкой полезных ссылок на эту тему.

Сайт Метеоцентр.Азия посвящён разработке технологий оптимизации авиаметеорологического обслуживания, включая проектирование и перспективное создание нескольких автоматизированных авиаметеорологических систем:
- система выпуска высокодетальных прогностических карт явлений погоды для нижнего воздушного пространства по России и ближнему зарубежью;
- система верификации прогнозов TAF (выпускаемых синоптиками официальных АМСГ РФ и ближнего зарубежья) и AUTOTAF (выпускаемых сайтом Метеоцентр.Азия) - выявление ошибок, онлайн-сопоставление с фактической погодой METAR, автоматическое внесение коррективов в прогнозы при резком отклонении фактической погоды от прогноза, подсчёт оправдываемости прогнозов по элементам и в целом;
- система обработки, анализа и отображения авиаметеорологической информации для применения провайдерами метеорологической информации.

Рекомендуем: Деревянные окна

Погода в Мариуполе - сегодня

Время (UTC), дата Ветер
(°,м/с) 
Видим.   Явления Облачность Т
(°С)
Тd
(°С)
f(%) Тe
(°С)
Pmin
(гПа)
dP
(гПа)
Po
(мм)
O2
(г/м3)
Тmin Tmax R s Состояние
почвы
21 25.09.16 320 (СЗ) 20000 м    10/3 600 м средняя 
[Sc|Ac As]
+11.7 +3.8 58 +11  1013.9  -0.1  754  291           
00 26.09.16 320 (СЗ) 20000 м    10/0 средняя 
[Ac und]
+10.8 +4.8 66 +9  1013.3  -0.6  754  291           
03 26.09.16 290 (З) 10 км  слаб. ливневой дождь  10/10 700 м кучево-дожд. 
[Cb cap]
+9.2 +7.1 87 +8  1012.9  -0.4  753  292           
06 26.09.16 290 (З) 10 км  слаб. ливневой дождь  10/10 600 м кучево-дожд. 
[Cb cap]
+9.3 +7.8 90 +8  1013.3  0.4  754  292  +9       
09 26.09.16 320 (СЗ) 10 км  слаб. ливневой дождь  10/10 570 м кучево-дожд. 
[Cb cap]
+10.5 +9.1 91 +9  1013.6  0.3  754  291           
12 26.09.16 320 (СЗ) 10 км  {ливн. осадки}  9/9 630 м 
[Sc]
+11.6 +9.2 85 +11  1014.6  755  290         
15 26.09.16 340 (С) 10 км    10/8 900 м средняя 
[Sc|Ac As]
+12.4 +9.8 84 +14  1016.2  1.6  756  290           
18 26.09.16 320 (СЗ) 20000 м    10/10 800 м 
[Sc]
+11.2 +9.6 90 +11  1017.8  1.6  757  291    +12.4     
21 26.09.16 340 (С) 10 км    10/10 660 м 
[Sc]
+10.1 +8.9 92 +10  1018.6  0.7  758  293           
00 27.09.16 340 (С) 20000 м    ясно 
+7.8 +7.1 95 +7  1018.6  758  296           
03 27.09.16 320 (СЗ) 4000 м  дымка  ясно 
+7.1 +6.9 99 +6  1018.7  758  296           
06 27.09.16 320 (СЗ) 10 км    10/10 1020 м 
[Sc]
+10.7 +9.5 92 +10  1019.2  0.7  758  292  +6.3         
09 27.09.16 310 (СЗ) 10 км    10/10 630 м 
[Cu hum]
+12.6 +9 79 +12  1019.2  758  290           
12 27.09.16 310 (СЗ) 10 км    10/10 840 м 
[Sc]
+12.7 +8.7 77 +12  1019.3  0.1  758  290           
15 27.09.16 290 (З) 10 км  {ливн. осадки}  10/10 660 м 
[Sc]
+12.4 +8.8 79 +13  1019.7  0.4  758  291           
18 27.09.16 290 (З) 10 км  {ливн. осадки}  10/10 1000 м 
[Sc]
+11.4 +9.6 89 +11  1020.4  0.7  759  292    +13.2  0.0     
21 27.09.16 320 (СЗ) 10 км    10/8 600 м средняя 
[Sc|Ac As]
+10.4 +9.6 95 +10  1020.1  -0.4  759  293           
00 28.09.16 320 (СЗ) 10 км    8/8 600 м 
[Sc]
+9.4 +8.1 92 +8  1019.5  -0.6  758  294           
03 28.09.16 320 (СЗ) 10 км    4/0 средняя 
[Ac As]
+7.9 +6.6 91 +7  1019.8  0.3  758  296           
06 28.09.16 340 (С) 10 км    8/4 600 м средняя 
[Sc|Ac trans]
+10 +7.7 86 +9  1020.4  0.6  759  294  +7         
09 28.09.16 340 (С) 20000 м    9/9 540 м 
[Sc]
+11.9 +6.8 71 +11  1021  0.7  759  292           
12 28.09.16 360 (С) 20000 м    8/8 480 м 
[Sc]
+14.2 +5.2 55 +14  1021  759  290           
15 28.09.16 340 (С) 20000 м    10/6 600 м средняя 
[Sc|Ac und]
+12.6 +6.2 65 +12  1021.8  0.8  760  292           
18 28.09.16 320 (СЗ) 20000 м    10/4 600 м средняя 
[Sc|Ac As]
+11.2 +6 70 +11  1022.8  0.9  761  293    +14.3       
21 28.09.16 290 (З) 20000 м    3/0 средняя 
[Ac trans]
+9.5 +6.5 82 +9  1022.9  0.1  761  295           
Время (UTC), дата Ветер
(°,м/с) 
Видим.   Явления Облачность Т
(°С)
Тd
(°С)
f(%) Тe
(°С)
Pmin
(гПа)
dP
(гПа)
Po
(мм)
O2
(г/м3)
Тmin Tmax R s Состояние
почвы

Для получения пояснительной информации подведите курсор к названию столбца.

ПОГОДА в Мариуполе - архив

Всё, что Вы хотите узнать о погоде в Мариуполе - удобно и подробно!

Выберите нужную дату (начиная с 1 января 2015* года) и нажмите кнопку "Найти".
Будут отображены архивные сводки погоды по пункту Мариуполь, начиная с указанной даты.


Отображать данные в формате CSV (для использования в таблицах Excel)


Внимание! Наш архив погоды предназначен исключительно для личного некоммерческого использования в познавательных целях. Если Вам необходимы официальные справки о состоянии погоды (для производственных, юридических, коммерческих и т.п. целей), обращайтесь в органы Росгидромета.

*Примечание: данная дата относится к архиву по метеостанциям СССР (Россия, СНГ, Балтия).
Архив по метеостанциям Зарубежной Европы и Азии (кроме Китая) хранится 10 дней, по другим регионам земного шара (Китай, Африка, Америка, Австралия, Океания) - 1 день.

Мариуполь - район местоположения метеостанции


Название, широта, долгота, высота метеостанции:
Мариуполь (город) 47°ш. 37.5°д. 70 м над ур. моря [Украина]

Дополнительная информация

В oтличие oт бoльшинства пoгoдных сайтoв мы публикуем пoдрoбную метеoинфoрмацию в детальнoм прoфессиoнальнoм фoрмате.

Характеристики температуры и влажнoсти вoздуха измеряются на высoте 2 м в тени вдали oт зданий и деревьев.
Скoрoсть ветра измеряется на высoте 10 м (на урoвне рoста челoвека скoрoсть ветра ниже в 1.5-2 раза). Если метеoстанция нахoдится в гoрoде или в лесу, тo скoрoсть ветра занижена на 2-4 м/с пo сравнению с oткрытым местoм. Скoрoсть ветра над акватoриями крупных рек и oзёр, а также на вершинах хoлмoв на 2-5 м/с выше, чем в oбычных услoвиях.
Атмoсфернoе давление в разных тoчках местнoсти мoжет значительнo oтличаться oт давления на метеoстанции, в зависимoсти oт услoвий рельефа (при пoдъёме на 10 м давление пoнижается примернo на 1 мм рт.ст.).